Lid_Strength_Index
6 6 5 5 5 5 5 5 5 6 6 5 5 4 4 4 2 3 7 7 8 11 9 7 6 7 7 8 10 8 9 10 10 13 13 14 14 13 14 13 14 15 16 16 15 17 19 10 10 13 10 8 8 8
5 5 5 6 6 6 6 6 7 7 6 5 5 5 4 4 3 2 7 6 5 8 10 6 5 5 5 5 7 6 8 9 8 12 11 11 13 12 13 16 10 15 12 14 14 14 11 10 9 7 7 9 8 8
5 5 6 6 6 7 7 7 6 6 6 6 5 5 5 4 3 3 5 5 7 10 9 9 7 4 3 4 3 8 7 7 9 7 10 10 13 11 15 14 12 10 9 13 12 10 9 9 8 7 8 8 8 7
6 6 7 7 7 7 7 7 6 6 6 5 5 5 5 4 4 4 5 5 6 8 10 10 5 5 3 3 3 4 6 7 7 7 9 10 12 8 12 11 12 10 9 11 11 9 8 8 8 8 8 7 7 7
7 7 7 7 7 7 7 7 7 6 6 6 5 5 5 4 4 4 5 5 5 8 9 9 6 5 4 4 4 5 6 6 8 9 9 11 8 9 9 9 12 9 10 12 13 8 8 8 6 7 7 8 7 8
8 8 8 8 7 7 7 7 7 7 7 6 6 5 5 4 4 6 9 5 4 6 8 11 8 7 4 4 5 5 6 6 7 8 10 8 6 8 12 12 9 9 8 7 9 7 6 6 7 7 7 7 6 7
8 8 8 8 8 8 7 7 7 6 6 6 5 5 5 4 5 8 8 5 3 3 7 11 11 6 4 4 5 6 6 6 6 7 9 9 8 8 11 13 8 8 7 7 6 6 8 7 8 7 6 6 7 6
8 8 8 8 8 8 7 7 7 7 6 6 5 5 5 4 5 7 6 4 2 4 5 10 11 10 5 7 8 6 7 6 7 8 8 9 8 9 12 8 8 7 6 6 6 6 6 6 7 7 6 6 7 8
8 8 7 7 7 7 7 7 7 7 6 6 5 4 6 7 7 4 2 2 1 4 8 9 12 14 5 7 6 8 8 11 8 9 9 9 11 13 10 9 8 7 8 6 6 6 6 6 7 7 7 8 8 8
8 8 8 8 8 7 7 7 7 6 5 5 6 7 7 6 2 2 5 6 6 6 6 9 9 12 8 8 8 10 9 10 12 10 7 11 12 8 7 6 6 6 6 7 9 8 8 7 7 8 8 8 8 8
8 8 8 7 7 7 7 7 6 6 5 8 10 9 7 4 5 6 8 9 8 9 9 9 9 11 7 10 10 9 13 10 13 11 11 14 15 9 6 6 5 4 6 6 6 7 7 6 7 8 8 7 8 8
8 7 7 7 7 6 6 5 5 7 8 8 8 6 7 8 8 9 10 8 9 11 8 9 9 8 7 7 11 10 13 12 14 8 12 14 10 7 6 5 6 5 5 6 6 6 7 7 7 7 7 8 8 8
8 7 7 7 6 5 5 5 6 6 6 6 7 9 9 9 12 12 14 12 11 8 7 7 9 7 8 7 10 12 14 15 10 14 13 11 8 6 6 5 5 5 4 5 5 5 6 7 6 6 6 7 8 8
8 8 7 7 6 6 6 6 6 7 8 8 10 12 11 12 10 10 10 9 7 7 7 8 9 9 8 10 9 13 11 11 15 16 14 10 8 6 6 5 5 5 5 5 5 5 5 7 7 7 6 7 8 8
8 7 7 6 6 6 6 6 6 8 9 10 9 12 12 9 8 8 7 7 6 5 7 7 7 8 11 10 9 11 13 16 16 16 12 8 6 6 5 5 5 5 5 5 5 5 5 6 7 7 7 8 7 8
8 7 6 5 5 5 5 6 7 8 8 8 9 10 9 10 9 8 8 8 6 6 6 7 10 11 11 11 12 13 14 16 14 12 8 6 6 5 5 5 5 4 5 5 5 4 5 5 6 6 7 7 7 7
7 11 6 5 5 5 5 7 8 8 9 9 10 8 9 9 8 7 7 7 5 6 9 9 11 12 10 13 14 12 13 12 9 8 7 6 6 5 5 5 4 4 4 4 4 5 5 4 6 6 7 7 8 8
10 9 6 6 5 6 8 6 8 9 11 9 10 9 10 9 9 8 7 6 6 7 7 9 8 11 12 14 15 11 9 8 7 6 6 5 4 4 5 5 4 4 4 4 4 4 6 5 6 6 6 7 7 8
7 6 5 4 5 7 10 9 8 11 10 9 9 8 8 8 7 6 6 5 5 5 6 8 10 11 11 9 9 8 8 7 7 6 6 5 5 4 4 4 4 5 6 6 5 4 5 6 6 6 7 7 8 8
4 4 4 4 4 8 10 10 7 8 11 9 8 9 10 9 7 8 7 6 6 7 8 9 9 8 8 7 7 7 6 5 6 7 6 5 4 4 5 5 5 6 6 6 4 6 5 6 6 6 6 7 8 9
6 6 5 6 8 8 10 10 10 10 9 10 8 9 9 9 10 9 9 8 9 9 9 7 7 6 5 5 6 6 6 6 6 5 6 6 4 4 5 4 5 6 7 6 5 6 6 5 6 7 6 7 7 8
8 5 8 7 9 10 11 8 10 9 10 11 10 10 12 13 11 10 9 10 10 9 8 7 6 5 4 5 5 6 5 5 5 5 6 6 5 5 4 4 5 6 6 6 6 5 6 6 6 5 6 7 8 8
4 5 6 6 9 10 12 7 10 9 12 11 11 11 12 12 10 8 11 9 8 7 6 5 5 5 4 4 4 4 4 5 5 5 5 4 4 4 4 4 5 5 5 6 5 5 7 7 6 5 6 6 7 8
2 5 6 7 9 13 8 9 9 10 10 11 12 12 11 11 9 10 11 10 7 5 5 5 5 5 5 5 6 5 5 5 5 4 4 5 5 5 3 3 4 4 4 5 5 5 6 6 6 5 5 6 7 8
9 12 9 11 9 9 9 9 10 11 10 11 11 12 12 9 13 12 11 9 7 7 6 5 5 6 6 5 5 4 3 4 6 6 5 4 4 4 5 4 4 3 3 4 5 5 6 6 6 6 6 7 8 9
16 11 14 10 10 11 11 10 9 10 10 11 9 8 9 10 11 11 9 7 7 7 6 5 6 6 6 6 5 5 4 5 5 6 5 3 3 4 4 5 5 5 4 4 4 5 5 5 6 7 8 8 9 8
14 14 10 7 8 8 10 10 10 11 11 11 10 10 10 12 12 9 6 6 6 5 4 4 4 5 6 5 3 3 3 4 4 4 3 3 3 3 3 4 5 4 3 4 4 4 5 5 7 7 8 8 8 8
10 9 12 11 10 9 10 10 10 11 10 8 8 11 12 11 10 8 6 4 4 4 4 4 5 4 4 5 5 5 4 4 3 3 3 4 4 4 3 4 3 7 3 3 4 4 4 5 6 6 7 8 9 9
9 8 8 10 10 9 10 10 10 9 8 9 10 11 8 6 7 6 6 7 6 6 7 6 6 5 5 4 5 6 6 6 5 6 6 7 7 5 4 4 4 4 4 5 9 6 5 5 5 6 7 8 8 9
10 8 10 10 10 10 8 6 7 6 6 7 7 6 5 6 7 7 8 8 8 8 8 7 7 7 7 7 7 7 6 7 6 6 6 6 5 4 4 4 4 6 5 6 7 8 9 7 8 7 8 9 10 11
8 8 8 9 9 8 6 6 5 5 5 6 6 7 7 7 7 7 8 8 8 8 8 8 8 6 7 8 9 9 8 7 6 6 5 4 4 5 4 3 3 4 6 6 6 6 7 8 8 9 10 11 11 11
8 8 9 9 8 6 6 7 8 7 7 7 7 6 6 8 10 8 8 8 8 9 9 8 8 8 6 6 7 7 9 8 8 8 7 5 5 4 4 3 4 4 5 6 7 8 9 10 10 10 11 11 11 12
9 7 7 8 9 8 7 8 8 9 8 9 9 8 9 10 13 9 7 7 8 8 8 8 7 7 7 7 7 7 7 7 8 9 9 9 9 8 5 5 5 6 7 7 8 8 9 9 10 10 10 11 11 11